Skip Page Navigation
NASA JPL Caltech
NASA Logo - Jet Propulsion Laboratory + View the NASA Portal
+ Near-Earth Object (NEO) Program
Search JPL
JPL Home Earth Solar System Stars & Galaxies Technology
JPL Solar System Dynamics
BODIES ORBITS EPHEMERIDES TOOLS PHYSICAL DATA DISCOVERY FAQ SITE MAP
JPL Small-Body Database Browser
Search: [ help ]  
C/2012 S1 (ISON)
Classification: Hyperbolic Comet          SPK-ID: 1003203
Ephemeris | Orbit Diagram | Orbital Elements | Physical Parameters | Close-Approach Data ]

[ hide orbit diagram ]
Orbit Diagram
Note: Make sure you have Java enabled on your browser to see the applet. This applet is provided as a 3D orbit visualization tool. The applet was implemented using 2-body methods, and hence should not be used for determining accurate long-term trajectories (over several years or decades) or planetary encounter circumstances. For accurate long-term ephemerides, please instead use our Horizons system.
Orbit Viewer

Additional Notes: the orbits shown in the applet are color coded. The planets are white lines, and the asteroid/comet is a blue line. The bright white line indicates the portion of the orbit that is above the ecliptic plane, and the darker portion is below the ecliptic plane. Likewise for the asteroid/comet orbit, the light blue indicates the portion above the ecliptic plane, and the dark blue the portion below the ecliptic plane.

Orbit Viewer applet originally written and kindly provided by Osamu Ajiki (AstroArts), and further modified by Ron Baalke (JPL).


Orbital Elements at Epoch 2456315.5 (2013-Jan-23.0) TDB
Reference: JPL 26 (heliocentric ecliptic J2000)
 Element Value Uncertainty (1-sigma)   Units 
e 1.000004033384607 4.8725e-08  
a -3099.170477115539 37.432 AU
q .0125001464967792 4.573e-07 AU
i 61.88036572566701 0.0019019 deg
node 295.7338126507787 0.00033675 deg
peri 345.5114574985121 0.00024727 deg
M 359.9982303489402 3.2056e-05 deg
tp 2456625.278852029722
(2013-Nov-28.77885203)
0.0010421 JED
period n/a
n/a
n/a
n/a
d
yr
n 5.712627082811559E-6 1.035e-07 deg/d
Q n/a n/a AU
  Orbit Determination Parameters
   # obs. used (total)      3889  
   data-arc span      510 days (1.40 yr)  
   first obs. used      2011-12-28  
   last obs. used      2013-05-21  
   planetary ephem.      DE405  
   SB-pert. ephem.      SB405-CPV-2  
   fit RMS      .53239  
   data source      ORB  
   producer      Otto Matic  
   solution date      2013-Jun-08 20:43:03  

Additional Information
 Earth MOID = .0232374 AU 
[ show covariance matrix ]

Ephemeris | Orbit Diagram | Orbital Elements | Physical Parameters | Close-Approach Data ]

Physical Parameter Table
Parameter Symbol Value Units Sigma Reference Notes
comet total magnitude M1 7.6 mag 0.5 26 from 882 observations, assumed slope, autocmod 2.5c
comet total magnitude slope K1 8.   n/a 26 autocmod 2.5c
comet nuclear magnitude M2 9.9 mag 0.5 26 from 2797 observations, autocmod 2.5c
comet nuclear magnitude slope K2 5.   n/a 26 autocmod 2.5c
comet nuclear phase coefficient PC 0.03   n/a 26 autocmod 2.5c

[ hide close-approach data ]
Close-Approach Data   ...sorted by Date/Time (TDB)
Date/Time (TDB) Time Uncertainty
(days_HH:MM)
Body Nominal Distance (AU) Minimum Distance (AU) Maximum Distance (AU) V-relative (km/s) V-infinity (km/s) JD (TDB) Time Uncertainty (minutes) Semi-major axis (km) Semi-minor axis (km) range-LOV angle (deg) N-sigma BP Orbit Ref. Reference Modified
2013-Oct-01 17:24 < 00:01 Mars 0.0724581587711431 0.0724384137156418 0.0724779204812844 40.0730214558031 40.0729228581177 2456567.224748466 0.893434896876353 2015.27875516351 217.79869128573 61.6259176005435 43510.634906831 T 26 CATAB v2.0c-linF95 2013-Jun-08 20:43:09 2013-Jun-08 20:43
2013-Dec-26 22:35 00:01 Earth 0.429195588439933 0.42917837658248 0.429212801442802 47.3696491623234 47.3695181061337 2456653.441298109 1.14273780542505 1816.14656804762 635.961299428357 72.2430645260795 94172.2574047733 T 26 CATAB v2.0c-linF95 2013-Jun-08 20:43:09 2013-Jun-08 20:43
Ephemeris | Orbit Diagram | Orbital Elements | Physical Parameters | Close-Approach Data ]
ABOUT SSD CREDITS/AWARDS PRIVACY/COPYRIGHT GLOSSARY LINKS
FirstGov 2013-Jun-20 05:26 UT
(server date/time)  
NASA Home Page
Site Manager:   Donald K. Yeomans
Webmaster  Alan B. Chamberlin